This is the latest recevied weather packets stored in our database for station/object WB0OCV. If no packets are shown the sender has not sent any weather packets the latest 1 day(s).
| Time | Temp. | Humidity | Pressure | Rain* | Wind** | Luminosity | Snow |
|---|---|---|---|---|---|---|---|
| 1777988744 | 16.11° C | 75% | 1015 hPa | 0 mm | 0.89 m/s, 129° | 564 W/m² | - |
| 1777988442 | 16.67° C | 74% | 1015 hPa | 0 mm | 1.34 m/s, 127° | 526 W/m² | - |
| 1777988139 | 16.11° C | 76% | 1015.1 hPa | 0 mm | 0.89 m/s, 185° | 569 W/m² | - |
| 1777987834 | 15.56° C | 77% | 1015.4 hPa | 0 mm | 0.89 m/s, 90° | 516 W/m² | - |
| 1777987531 | 15.56° C | 78% | 1015.3 hPa | 0 mm | 1.34 m/s, 180° | 110 W/m² | - |
| 1777987229 | 15.56° C | 78% | 1015.2 hPa | 0 mm | 0.89 m/s, 120° | 127 W/m² | - |
| 1777986925 | 15.56° C | 78% | 1015.2 hPa | 0 mm | 0.89 m/s, 181° | 95 W/m² | - |
| 1777986624 | 15° C | 79% | 1015.2 hPa | 0 mm | 0.45 m/s, 173° | 91 W/m² | - |
| 1777986321 | 15° C | 78% | 1015.3 hPa | 0 mm | 0.45 m/s, 152° | 114 W/m² | - |
| 1777986020 | 15.56° C | 78% | 1015.4 hPa | 0 mm | 0.45 m/s, 225° | 86 W/m² | - |
| 1777985716 | 15.56° C | 78% | 1015.2 hPa | 0 mm | 2.24 m/s, 77° | 83 W/m² | - |
| 1777985412 | 15.56° C | 77% | 1015.1 hPa | 0 mm | 0.89 m/s, 145° | 78 W/m² | - |
| 1777985109 | 15.56° C | 79% | 1015 hPa | 0 mm | 1.34 m/s, 227° | 108 W/m² | - |
| 1777984806 | 15.56° C | 78% | 1014.9 hPa | 0 mm | 1.34 m/s, 187° | 71 W/m² | - |
| 1777984502 | 15° C | 79% | 1015 hPa | 0 mm | 0.45 m/s, 121° | 72 W/m² | - |
| 1777984198 | 15° C | 79% | 1014.9 hPa | 0 mm | 1.34 m/s, 202° | 105 W/m² | - |
| 1777983895 | 15° C | 80% | 1015.1 hPa | 0 mm | 2.24 m/s, 224° | 133 W/m² | - |
| 1777983592 | 14.44° C | 81% | 1015 hPa | 0 mm | 0.45 m/s, 190° | 134 W/m² | - |
| 1777983289 | 14.44° C | 82% | 1015 hPa | 0 mm | 0.89 m/s, 243° | 61 W/m² | - |
| 1777982985 | 14.44° C | 82% | 1015 hPa | 0 mm | 0.45 m/s, 172° | 57 W/m² | - |
| 1777982682 | 14.44° C | 81% | 1014.9 hPa | 0 mm | 1.34 m/s, 248° | 55 W/m² | - |
| 1777982381 | 14.44° C | 82% | 1015.2 hPa | 0 mm | 0.89 m/s, 187° | 55 W/m² | - |
| 1777982077 | 13.89° C | 81% | 1014.9 hPa | 0 mm | 0.89 m/s, 174° | 54 W/m² | - |
| 1777981776 | 13.89° C | 82% | 1014.9 hPa | 0 mm | 0.89 m/s, 306° | 53 W/m² | - |
| 1777981471 | 13.89° C | 83% | 1015 hPa | 0 mm | 0.89 m/s, 213° | 57 W/m² | - |
* Rain latest hour (hover to see other rain measurements)
** Current wind speed in m/s (hover to see current wind gust speed)